FDB43 OMDB-OOMS

Flight info

Callsign FDB43
Flight time N/A
Altitude 25000
Route ANVIX L223 TARDI N629 MUSUK T511 MCT
Aircraft B738/M-SDE2E3FGHIRWXY/LB1

Departure

Time 2026-05-04 23:07
Airport Dubai International Airport (OMDB)

Arrival

Time N/A
Airport Muscat International Airport (OOMS)
Time Latitude Longitude Altitude Speed Heading
2026-05-04 22:20 25.24299 55.37435 22 ft 0 kts 211°
2026-05-04 22:58 25.24307 55.37441 22 ft 4 kts 211°
2026-05-04 22:58 25.24331 55.37457 21 ft 4 kts 211°
2026-05-04 22:58 25.24350 55.37470 21 ft 4 kts 206°
2026-05-04 22:58 25.24375 55.37477 22 ft 4 kts 177°
2026-05-04 22:59 25.24399 55.37470 24 ft 4 kts 142°
2026-05-04 22:59 25.24415 55.37450 24 ft 4 kts 121°
2026-05-04 22:59 25.24424 55.37433 23 ft 0 kts 121°
2026-05-04 23:02 25.24424 55.37434 23 ft 0 kts 122°
2026-05-04 23:02 25.24421 55.37441 23 ft 3 kts 111°
2026-05-04 23:02 25.24425 55.37477 24 ft 8 kts 81°
2026-05-04 23:02 25.24427 55.37550 21 ft 11 kts 92°
2026-05-04 23:03 25.24409 55.37639 22 ft 13 kts 113°
2026-05-04 23:03 25.24386 55.37729 22 ft 13 kts 70°
2026-05-04 23:03 25.24440 55.37782 28 ft 9 kts 35°
2026-05-04 23:03 25.24492 55.37822 28 ft 9 kts 34°
2026-05-04 23:04 25.24544 55.37860 28 ft 9 kts 35°
2026-05-04 23:04 25.24607 55.37908 25 ft 13 kts 34°
2026-05-04 23:04 25.24674 55.37956 24 ft 9 kts 33°
2026-05-04 23:04 25.24724 55.37992 26 ft 8 kts 32°
2026-05-04 23:05 25.24775 55.38021 29 ft 8 kts 16°
2026-05-04 23:05 25.24822 55.37999 29 ft 8 kts 303°
2026-05-04 23:05 25.24826 55.37993 29 ft 0 kts 304°
2026-05-04 23:06 25.24971 55.37731 29 ft 82 kts 301°
2026-05-04 23:07 25.25406 55.36944 31 ft 155 kts 301°
2026-05-04 23:07 25.26014 55.35834 548 ft 175 kts 300°
2026-05-04 23:07 25.26646 55.34694 1499 ft 169 kts 301°
2026-05-04 23:07 25.27241 55.33619 2369 ft 161 kts 300°
2026-05-04 23:08 25.27826 55.32570 2763 ft 163 kts 300°
2026-05-04 23:08 25.28452 55.31447 3107 ft 187 kts 300°
2026-05-04 23:08 25.29133 55.30095 3329 ft 215 kts 287°
2026-05-04 23:08 25.29114 55.28426 3774 ft 227 kts 253°
2026-05-04 23:09 25.28494 55.26797 4464 ft 233 kts 246°
2026-05-04 23:09 25.27788 55.25186 5331 ft 232 kts 246°
2026-05-04 23:09 25.27085 55.23581 6191 ft 232 kts 247°
2026-05-04 23:09 25.26385 55.21962 6972 ft 235 kts 247°
2026-05-04 23:10 25.25682 55.20331 7744 ft 237 kts 248°
2026-05-04 23:10 25.24960 55.18679 8532 ft 241 kts 242°
2026-05-04 23:10 25.23777 55.17334 9310 ft 253 kts 214°
2026-05-04 23:10 25.22041 55.16731 9886 ft 275 kts 187°
2026-05-04 23:11 25.20092 55.16841 10531 ft 287 kts 169°
2026-05-04 23:11 25.18315 55.17886 11207 ft 300 kts 138°
2026-05-04 23:11 25.17072 55.19812 11605 ft 318 kts 117°
2026-05-04 23:11 25.16060 55.22027 12234 ft 326 kts 116°
2026-05-04 23:12 25.15033 55.24263 13017 ft 328 kts 117°
2026-05-04 23:12 25.13977 55.26505 13803 ft 330 kts 117°
2026-05-04 23:12 25.12902 55.28761 14459 ft 334 kts 117°
2026-05-04 23:12 25.11803 55.31046 15073 ft 340 kts 117°
2026-05-04 23:13 25.10687 55.33370 15730 ft 344 kts 116°
2026-05-04 23:13 25.09642 55.35798 16402 ft 348 kts 113°
2026-05-04 23:13 25.08652 55.38249 17058 ft 353 kts 113°
2026-05-04 23:13 25.07660 55.40704 17698 ft 357 kts 113°
2026-05-04 23:14 25.06646 55.43239 18143 ft 369 kts 112°
2026-05-04 23:14 25.05607 55.45949 18271 ft 388 kts 112°
2026-05-04 23:14 25.04564 55.48693 18643 ft 397 kts 112°
2026-05-04 23:14 25.03471 55.51549 19210 ft 400 kts 112°
2026-05-04 23:15 25.02396 55.54339 19805 ft 401 kts 112°
2026-05-04 23:15 25.01185 55.57165 20377 ft 405 kts 118°
2026-05-04 23:15 24.99740 55.59852 20923 ft 409 kts 122°
2026-05-04 23:15 24.98237 55.62472 21510 ft 410 kts 122°
2026-05-04 23:16 24.96734 55.65136 22232 ft 408 kts 121°
2026-05-04 23:16 24.95274 55.67799 22985 ft 406 kts 121°
2026-05-04 23:16 24.93815 55.70466 23605 ft 405 kts 123°
2026-05-04 23:16 24.92217 55.73023 24100 ft 406 kts 127°
2026-05-04 23:17 24.90527 55.75513 24624 ft 407 kts 128°
2026-05-04 23:17 24.88810 55.78009 24744 ft 408 kts 128°
2026-05-04 23:17 24.87118 55.80507 24761 ft 406 kts 127°
2026-05-04 23:17 24.85447 55.83014 24772 ft 407 kts 127°
2026-05-04 23:18 24.83777 55.85531 24783 ft 408 kts 127°
2026-05-04 23:18 24.82095 55.88039 24778 ft 409 kts 127°
2026-05-04 23:18 24.80397 55.90550 24782 ft 409 kts 127°
2026-05-04 23:18 24.78698 55.93061 24776 ft 409 kts 128°
2026-05-04 23:19 24.76837 55.95427 24776 ft 408 kts 138°
2026-05-04 23:19 24.74749 55.97529 24782 ft 407 kts 140°
2026-05-04 23:19 24.72631 55.99602 24773 ft 407 kts 140°
2026-05-04 23:19 24.70544 56.01698 24775 ft 406 kts 139°
2026-05-04 23:20 24.68477 56.03816 24780 ft 406 kts 138°
2026-05-04 23:20 24.66417 56.05936 24786 ft 405 kts 139°
2026-05-04 23:20 24.64360 56.08045 24796 ft 405 kts 139°
2026-05-04 23:20 24.62298 56.10155 24797 ft 405 kts 139°
2026-05-04 23:21 24.60240 56.12259 24798 ft 404 kts 139°
2026-05-04 23:21 24.58189 56.14368 24799 ft 404 kts 138°
2026-05-04 23:21 24.56193 56.16552 24797 ft 405 kts 134°
2026-05-04 23:21 24.54326 56.18875 24799 ft 405 kts 131°
2026-05-04 23:22 24.52509 56.21229 24798 ft 404 kts 131°
2026-05-04 23:22 24.50695 56.23597 24802 ft 404 kts 131°
2026-05-04 23:22 24.48879 56.25953 24798 ft 404 kts 131°
2026-05-04 23:22 24.47056 56.28300 24784 ft 404 kts 131°
2026-05-04 23:23 24.45230 56.30637 24772 ft 404 kts 132°
2026-05-04 23:23 24.43393 56.32976 24766 ft 404 kts 132°
2026-05-04 23:23 24.41556 56.35311 24754 ft 405 kts 132°
2026-05-04 23:23 24.39717 56.37645 24740 ft 405 kts 132°
2026-05-04 23:24 24.37874 56.39985 24738 ft 405 kts 132°
2026-05-04 23:24 24.36029 56.42326 24730 ft 405 kts 132°
2026-05-04 23:24 24.34183 56.44668 24721 ft 406 kts 132°
2026-05-04 23:24 24.32340 56.47006 24714 ft 406 kts 132°
2026-05-04 23:25 24.30493 56.49345 24711 ft 406 kts 132°
2026-05-04 23:25 24.28716 56.51751 24709 ft 406 kts 128°
2026-05-04 23:25 24.27041 56.54234 24702 ft 406 kts 126°
2026-05-04 23:25 24.25414 56.56726 24708 ft 406 kts 126°
2026-05-04 23:26 24.23782 56.59239 24714 ft 405 kts 126°
2026-05-04 23:26 24.22143 56.61751 24716 ft 405 kts 126°
2026-05-04 23:26 24.20502 56.64249 24719 ft 404 kts 126°
2026-05-04 23:26 24.18855 56.66741 24723 ft 404 kts 127°
2026-05-04 23:27 24.17204 56.69228 24731 ft 404 kts 127°
2026-05-04 23:27 24.15549 56.71717 24739 ft 403 kts 127°
2026-05-04 23:27 24.13897 56.74198 24745 ft 403 kts 127°
2026-05-04 23:27 24.12248 56.76675 24751 ft 403 kts 127°
2026-05-04 23:28 24.10599 56.79151 24758 ft 403 kts 127°
2026-05-04 23:28 24.08946 56.81631 24762 ft 403 kts 127°
2026-05-04 23:28 24.07252 56.84173 24767 ft 403 kts 127°
2026-05-04 23:28 24.05600 56.86650 24760 ft 403 kts 127°
2026-05-04 23:29 24.03946 56.89127 24766 ft 403 kts 127°
2026-05-04 23:29 24.02288 56.91600 24766 ft 403 kts 127°
2026-05-04 23:29 24.00624 56.94076 24764 ft 403 kts 127°
2026-05-04 23:29 23.98965 56.96541 24759 ft 401 kts 127°
2026-05-04 23:30 23.97325 56.98979 24750 ft 394 kts 127°
2026-05-04 23:30 23.95707 57.01382 24751 ft 391 kts 127°
2026-05-04 23:30 23.94096 57.03777 24762 ft 391 kts 127°
2026-05-04 23:30 23.92483 57.06174 24757 ft 392 kts 127°
2026-05-04 23:31 23.90861 57.08580 24473 ft 394 kts 127°
2026-05-04 23:31 23.89244 57.10980 24207 ft 390 kts 127°
2026-05-04 23:31 23.87639 57.13363 23830 ft 390 kts 127°
2026-05-04 23:31 23.86032 57.15754 23467 ft 389 kts 127°
2026-05-04 23:32 23.84432 57.18134 23054 ft 388 kts 126°
2026-05-04 23:32 23.82843 57.20499 22662 ft 386 kts 126°
2026-05-04 23:32 23.81257 57.22856 22287 ft 383 kts 126°
2026-05-04 23:32 23.79684 57.25193 21919 ft 381 kts 126°
2026-05-04 23:33 23.78124 57.27511 21571 ft 378 kts 126°
2026-05-04 23:33 23.76571 57.29816 21208 ft 375 kts 126°
2026-05-04 23:33 23.75030 57.32101 20856 ft 373 kts 126°
2026-05-04 23:33 23.73516 57.34389 20504 ft 370 kts 121°
2026-05-04 23:34 23.72355 57.36883 20166 ft 366 kts 109°
2026-05-04 23:34 23.71671 57.39525 19930 ft 358 kts 98°
2026-05-04 23:34 23.71272 57.42194 19610 ft 356 kts 96°
2026-05-04 23:34 23.70909 57.44823 19280 ft 354 kts 96°
2026-05-04 23:35 23.70549 57.47474 18945 ft 352 kts 96°
2026-05-04 23:35 23.70182 57.50146 18591 ft 352 kts 96°
2026-05-04 23:35 23.69814 57.52777 18255 ft 351 kts 96°
2026-05-04 23:35 23.69442 57.55408 17876 ft 350 kts 96°
2026-05-04 23:36 23.69073 57.57993 17515 ft 348 kts 96°
2026-05-04 23:36 23.68695 57.60628 17142 ft 346 kts 96°
2026-05-04 23:36 23.68326 57.63183 16813 ft 344 kts 96°
2026-05-04 23:36 23.67954 57.65752 16467 ft 340 kts 96°
2026-05-04 23:37 23.67587 57.68279 16111 ft 334 kts 97°
2026-05-04 23:37 23.67226 57.70765 15799 ft 329 kts 97°
2026-05-04 23:37 23.66866 57.73239 15476 ft 324 kts 97°
2026-05-04 23:37 23.66515 57.75644 15157 ft 319 kts 97°
2026-05-04 23:38 23.66170 57.78016 14842 ft 314 kts 97°
2026-05-04 23:38 23.65830 57.80350 14534 ft 310 kts 97°
2026-05-04 23:38 23.65493 57.82653 14226 ft 306 kts 97°
2026-05-04 23:38 23.65161 57.84928 13920 ft 302 kts 97°
2026-05-04 23:39 23.64832 57.87177 13620 ft 299 kts 97°
2026-05-04 23:39 23.64506 57.89405 13280 ft 296 kts 97°
2026-05-04 23:39 23.64184 57.91597 13080 ft 290 kts 97°
2026-05-04 23:39 23.63867 57.93758 12856 ft 289 kts 97°
2026-05-04 23:40 23.63547 57.95946 12585 ft 298 kts 97°
2026-05-04 23:40 23.63213 57.98225 12288 ft 309 kts 97°
2026-05-04 23:40 23.62873 58.00539 11962 ft 308 kts 97°
2026-05-04 23:40 23.62534 58.02831 11631 ft 303 kts 98°
2026-05-04 23:41 23.62202 58.05082 11307 ft 299 kts 98°
2026-05-04 23:41 23.61983 58.06557 11113 ft 296 kts 98°
2026-05-04 23:41 23.61659 58.08754 10812 ft 291 kts 98°
2026-05-04 23:41 23.61334 58.10948 10508 ft 288 kts 98°
2026-05-04 23:42 23.61021 58.13064 10218 ft 285 kts 98°
2026-05-04 23:42 23.60708 58.15174 10040 ft 279 kts 98°
2026-05-04 23:42 23.60399 58.17257 9810 ft 279 kts 98°
2026-05-04 23:42 23.60087 58.19365 9543 ft 286 kts 98°
2026-05-04 23:43 23.59766 58.21526 9233 ft 291 kts 98°
2026-05-04 23:43 23.59442 58.23704 8919 ft 290 kts 98°
2026-05-04 23:43 23.59226 58.25886 8594 ft 289 kts 85°
2026-05-04 23:43 23.59705 58.27980 8315 ft 285 kts 69°
2026-05-04 23:44 23.60398 58.30034 8001 ft 284 kts 68°
2026-05-04 23:44 23.61090 58.32045 7686 ft 284 kts 68°
2026-05-04 23:44 23.61777 58.34049 7436 ft 281 kts 69°
2026-05-04 23:44 23.62455 58.36042 7155 ft 280 kts 69°
2026-05-04 23:45 23.63125 58.38025 6875 ft 279 kts 69°
2026-05-04 23:45 23.63793 58.40009 6596 ft 278 kts 69°
2026-05-04 23:45 23.64457 58.41988 6304 ft 278 kts 69°
2026-05-04 23:45 23.65120 58.43969 6007 ft 277 kts 69°
2026-05-04 23:46 23.65780 58.45941 5703 ft 277 kts 69°
2026-05-04 23:46 23.66439 58.47913 5409 ft 276 kts 69°
2026-05-04 23:46 23.67094 58.49877 5125 ft 276 kts 69°
2026-05-04 23:46 23.67749 58.51837 4837 ft 275 kts 69°
2026-05-04 23:47 23.68056 58.53863 4623 ft 268 kts 99°
2026-05-04 23:47 23.67340 58.55610 4507 ft 251 kts 133°
2026-05-04 23:47 23.65966 58.56678 4399 ft 234 kts 161°
2026-05-04 23:47 23.64442 58.56910 4304 ft 222 kts 188°
2026-05-04 23:48 23.62986 58.56373 4239 ft 224 kts 214°
2026-05-04 23:48 23.61949 58.55133 4074 ft 218 kts 249°
2026-05-04 23:48 23.61706 58.54110 3944 ft 206 kts 259°